Weather History for Owensboro, KY

Change the Weather History Date:

Friday, January 17, 2014

  Actual Average Record
Temperature  
Mean Temperature 25 °F -  
Max Temperature 33 °F 40 °F 69 °F (1952)
Min Temperature 17 °F 24 °F -16 °F (1982)
Degree Days  
Heating Degree Days 40    
Moisture  
Dew Point 19 °F    
Average Humidity 85    
Maximum Humidity 100    
Minimum Humidity 60    
Precipitation  
Precipitation 0.00 in - - ()
Sea Level Pressure  
Sea Level Pressure 29.98 in    
Wind  
Wind Speed 11 mph (WNW)    
Max Wind Speed 21 mph    
Max Gust Speed 24 mph    
Visibility 6 miles    
Events Snow    
Averages and records for this station are not official NWS values.
T = Trace of Precipitation, MM = Missing Value Source: NWS Daily Summary

Daily Weather History Graph

Daily Weather History Graph

Search for Another Location

Airport:

Trip Planner

Search our weather history database for the weather conditions in past years. The results will help you decide how hot, cold, wet, or windy it might be!

Date:

Astronomy

Jan. 17, 2014 Rise Set
Actual Time 7:02 AM CST 4:55 PM CST
Civil Twilight 6:33 AM CST 5:24 PM CST
Nautical Twilight 6:01 AM CST 5:56 PM CST
Astronomical Twilight 5:29 AM CST 6:28 PM CST
Moon 6:39 PM CST (1/17) 7:32 AM CST (1/17)
Length of Visible Light 10h 50m
Length of Day
9h 53m
Full, 98% of the Moon is Illuminated
Jan 17
Full
Jan 23
Last Quarter
Jan 30
New
Feb 6
First Quarter
Feb 14
Full

Hourly Weather History & Observations

Time (CST) Temp. Windchill Dew Point Humidity Pressure Visibility Wind Dir Wind Speed Gust Speed Precip Events Conditions
12:56 AM 32.0 °F 24.2 °F 32.0 °F 100% 29.81 in 10.0 mi South 9.2 mph - N/A   Clear
1:56 AM 31.1 °F 21.4 °F 31.1 °F 100% 29.82 in 10.0 mi SW 12.7 mph 19.6 mph N/A   Mostly Cloudy
2:56 AM 32.9 °F 23.7 °F 28.0 °F 82% 29.83 in 7.0 mi WNW 12.7 mph 21.9 mph 0.00 in Snow Light Snow
3:05 AM 33.8 °F 26.4 °F 28.4 °F 81% 29.81 in 10.0 mi WNW 9.2 mph - 0.00 in Snow Light Snow
3:40 AM 32.0 °F 21.2 °F 28.4 °F 87% 29.82 in 3.0 mi WNW 16.1 mph - 0.00 in Snow Light Snow
3:56 AM 32.0 °F 20.1 °F 27.1 °F 82% 29.83 in 7.0 mi WNW 19.6 mph - 0.00 in Snow Light Snow
4:17 AM 30.2 °F 21.3 °F 28.4 °F 93% 29.84 in 1.8 mi WNW 10.4 mph - 0.00 in Snow Light Snow
4:19 AM 30.2 °F 21.9 °F 28.4 °F 93% 29.83 in 1.2 mi WNW 9.2 mph - 0.00 in Snow Light Snow
4:27 AM 30.2 °F 22.6 °F 30.2 °F 100% 29.84 in 1.0 mi WNW 8.1 mph - 0.00 in Snow Light Snow
4:37 AM 28.4 °F 20.4 °F 28.4 °F 100% 29.84 in 1.2 mi WNW 8.1 mph - 0.00 in Snow Light Snow
4:40 AM 28.4 °F 20.4 °F 28.4 °F 100% 29.84 in 2.0 mi WNW 8.1 mph - 0.00 in Snow Light Snow
4:44 AM 28.4 °F 19.1 °F 28.4 °F 100% 29.85 in 3.0 mi WNW 10.4 mph - 0.00 in Snow Light Snow
4:56 AM 27.1 °F 14.1 °F 27.1 °F 100% 29.87 in 1.0 mi NNW 18.4 mph - 0.00 in Snow Light Snow
5:00 AM 26.6 °F 14.3 °F 26.6 °F 100% 29.86 in 1.5 mi NNW 16.1 mph - 0.00 in Snow Light Snow
5:04 AM 26.6 °F 16.2 °F 26.6 °F 100% 29.87 in 2.0 mi NW 11.5 mph - 0.00 in Snow Light Snow
5:15 AM 24.8 °F 12.4 °F 24.8 °F 100% 29.87 in 4.0 mi NW 15.0 mph - 0.00 in Snow Light Snow
5:28 AM 24.8 °F 14.0 °F 24.8 °F 100% 29.88 in 4.0 mi NW 11.5 mph - 0.00 in Snow Light Snow
5:40 AM 24.8 °F 14.0 °F 24.8 °F 100% 29.89 in 3.0 mi NW 11.5 mph - 0.00 in Snow Light Snow
5:56 AM 25.2 °F 10.8 °F 24.1 °F 96% 29.91 in 3.0 mi NW 20.7 mph 24.2 mph 0.00 in Snow Light Snow
7:32 AM 19.4 °F 6.0 °F 15.8 °F 86% 29.97 in 2.0 mi NW 13.8 mph 23.0 mph 0.00 in Snow Light Snow
7:41 AM 19.4 °F 7.2 °F 15.8 °F 86% 29.97 in 1.2 mi NW 11.5 mph 19.6 mph 0.00 in Snow Light Snow
7:56 AM 19.0 °F 6.8 °F 17.1 °F 92% 29.99 in 6.0 mi NW 11.5 mph - 0.00 in Snow Light Snow
8:16 AM 19.4 °F 6.6 °F 12.2 °F 74% 29.99 in 8.0 mi West 12.7 mph 19.6 mph 0.00 in Snow Light Snow
8:56 AM 19.0 °F 6.1 °F 12.0 °F 74% 30.02 in 8.0 mi WNW 12.7 mph 19.6 mph 0.00 in Snow Light Snow
9:56 AM 19.0 °F 5.6 °F 8.1 °F 62% 30.05 in 8.0 mi WNW 13.8 mph 20.7 mph 0.00 in   Mostly Cloudy
10:56 AM 19.0 °F 6.1 °F 7.2 °F 60% 30.05 in 8.0 mi NW 12.7 mph - N/A   Overcast
11:38 AM 17.6 °F 4.3 °F 10.4 °F 73% 30.04 in 2.5 mi WNW 12.7 mph 19.6 mph 0.00 in Snow Light Snow
11:56 AM 18.1 °F 5.0 °F 13.1 °F 81% 30.05 in 4.0 mi West 12.7 mph 19.6 mph 0.00 in Snow Light Snow
12:03 PM 17.6 °F 4.3 °F 12.2 °F 79% 30.03 in 4.0 mi West 12.7 mph - 0.00 in Snow Light Snow
12:27 PM 19.4 °F 4.1 °F 10.4 °F 68% 30.02 in 5.0 mi West 18.4 mph 24.2 mph 0.00 in   Overcast
12:56 PM 19.0 °F 4.0 °F 11.1 °F 71% 30.05 in 7.0 mi WNW 17.3 mph - 0.00 in Snow Light Snow
1:56 PM 19.0 °F 6.1 °F 8.1 °F 62% 30.08 in 10.0 mi WNW 12.7 mph 18.4 mph 0.00 in   Overcast
2:56 PM 20.1 °F 5.9 °F 9.1 °F 62% 30.10 in 10.0 mi West 16.1 mph 23.0 mph N/A   Overcast
3:56 PM 19.0 °F 6.8 °F 11.1 °F 71% 30.13 in 10.0 mi NW 11.5 mph - 0.00 in Snow Light Snow
4:56 PM 19.0 °F 6.1 °F 10.0 °F 68% 30.14 in 10.0 mi WNW 12.7 mph - 0.00 in   Overcast
5:56 PM 18.1 °F 8.9 °F 12.0 °F 77% 30.15 in 10.0 mi WNW 6.9 mph - 0.00 in   Overcast
6:56 PM 18.1 °F 10.0 °F 12.0 °F 77% 30.16 in 10.0 mi West 5.8 mph - 0.00 in Snow Light Snow
7:56 PM 18.1 °F 8.9 °F 12.0 °F 77% 30.16 in 10.0 mi West 6.9 mph - 0.00 in   Overcast
8:56 PM 18.1 °F 8.9 °F 13.1 °F 81% 30.17 in 10.0 mi WNW 6.9 mph - 0.00 in Snow Light Snow
9:25 PM 17.6 °F 10.7 °F 14.0 °F 86% 30.15 in 6.0 mi NW 4.6 mph - 0.00 in Snow Light Snow
9:40 PM 17.6 °F - 15.8 °F 93% 30.15 in 9.0 mi Calm Calm - 0.00 in Snow Light Snow
9:56 PM 18.1 °F 11.3 °F 15.1 °F 88% 30.17 in 6.0 mi NNW 4.6 mph - 0.00 in Snow Light Snow
10:56 PM 18.1 °F - 15.1 °F 88% 30.16 in 10.0 mi Calm Calm - 0.00 in   Overcast
11:56 PM 18.1 °F 10.0 °F 14.0 °F 84% 30.14 in 10.0 mi WSW 5.8 mph - N/A   Mostly Cloudy